Location: Unspecified
(40.9447°N, 78.9903°W)
Time: 01:04:36
(UTC-04:00)

Okean 3 - Pass Details

Date: 28 July 2021
Orbit: 574 x 601 km, 82.5° (Epoch: 19 September)

Event Time Altitude Azimuth Distance (km) Brightness Sun altitude
Rises 01:00:12 0° 15° (NNE) 2,851 8.0 -29.9°
Reaches altitude 10° 01:04:09 10° 51° (NE) 1,936 6.5 -30.0°
Enters shadow 01:05:06 11° 64° (ENE) 1,867 6.2 -30.0°
